User: anonymous   Login
Location: Fort Frances
(48.6170°N, 93.4170°W)
Time: 10:20:19
(UTC-05:00)
Language:

CZ-2C R/B - Orbit

View from above orbital plane
View from above orbital plane
View from above satellite
View from above satellite

Ground track
Ground track

The orbit data is extracted from the following two-line orbital elements,

1 36089U 09061B   17296.05810177 -.00000025  00000-0  50726-5 0  9999
2 36089  98.0582 292.2199 0082372  12.8186  27.7849 14.49687334420239
Epoch (UTC): 23 October 2017 01:23:39
Eccentricity: 0.0082372
inclination: 98.0582°
perigee height: 668 km
apogee height: 785 km
right ascension of ascending node: 292.2199°
argument of perigee: 12.8186°
revolutions per day: 14.49687334
mean anomaly at epoch: 27.7849°
orbit number at epoch: 42023

The dashed part of the orbit path shows where the satellite is in the earth's shadow,  

DLR